Weather History for Middletown, OH

Change the Weather History Date:

Sunday, April 7, 2013

  Actual Average (KDAY) Record (KDAY)
Temperature  
Mean Temperature 64 °F 49 °F  
Max Temperature 72 °F 59 °F 85 °F (2001)
Min Temperature 55 °F 39 °F 17 °F (1982)
Degree Days  
Heating Degree Days 2 17  
Month to date heating degree days 124  
Since 1 July heating degree days 5163  
Cooling Degree Days 0 0  
Month to date cooling degree days 0  
Year to date cooling degree days 0  
Growing Degree Days 14 (Base 50)    
Moisture  
Dew Point 46 °F    
Average Humidity 53    
Maximum Humidity 81    
Minimum Humidity 39    
Precipitation  
Precipitation 0.00 in 0.13 in 2.23 in (2000)
Month to date precipitation 0.89  
Year to date precipitation 9.18  
Snow  
Snow 0.00 in 0.00 in 1.80 in (1985)
Month to date snowfall 0.3  
Since 1 July snowfall 23.0  
Snow Depth -    
Sea Level Pressure  
Sea Level Pressure 29.93 in    
Wind  
Wind Speed 11 mph (SW)    
Max Wind Speed 18 mph    
Max Gust Speed 25 mph    
Visibility 10 miles    
Events      
T = Trace of Precipitation, MM = Missing Value Source: NWS Daily Summary

Daily Weather History Graph

Daily Weather History Graph

Search for Another Location

Airport:

Trip Planner

Search our weather history database for the weather conditions in past years. The results will help you decide how hot, cold, wet, or windy it might be!

Date:

Astronomy

Apr. 07, 2013 Rise Set
Actual Time 7:12 AM EDT 8:07 PM EDT
Civil Twilight 6:44 AM EDT 8:35 PM EDT
Nautical Twilight 6:12 AM EDT 9:07 PM EDT
Astronomical Twilight 5:38 AM EDT 9:41 PM EDT
Moon 5:28 AM EDT (4/7) 5:39 PM EDT (4/7)
Length of Visible Light 13h 50m
Length of Day
12h 55m
Waning Crescent, 8% of the Moon is Illuminated
Apr 7
Waning Crescent
Apr 10
New
Apr 18
First Quarter
Apr 25
Full
May 2
Last Quarter

Hourly Weather History & Observations

Time (EDT) Temp. Dew Point Humidity Pressure Visibility Wind Dir Wind Speed Gust Speed Precip Events Conditions
12:15 AM 58.8 °F 39.2 °F 48% 29.90 in 10.0 mi South 8.1 mph - N/A   Clear
12:35 AM 57.7 °F 38.7 °F 49% 29.90 in 10.0 mi South 5.8 mph - N/A   Clear
12:55 AM 57.7 °F 39.0 °F 50% 29.91 in 10.0 mi SSW 6.9 mph - N/A   Clear
1:15 AM 57.7 °F 39.0 °F 50% 29.90 in 10.0 mi SSW 9.2 mph - N/A   Clear
1:35 AM 59.0 °F 39.2 °F 48% 29.90 in 10.0 mi SSW 10.4 mph - N/A   Scattered Clouds
1:55 AM 59.0 °F 39.2 °F 48% 29.89 in 10.0 mi SSW 11.5 mph 17.3 mph N/A   Scattered Clouds
2:15 AM 60.8 °F 38.5 °F 44% 29.88 in 10.0 mi SSW 15.0 mph 18.4 mph N/A   Mostly Cloudy
2:35 AM 61.3 °F 38.5 °F 43% 29.88 in 10.0 mi SSW 16.1 mph 23.0 mph N/A   Scattered Clouds
2:55 AM 60.4 °F 38.7 °F 45% 29.88 in 10.0 mi SSW 13.8 mph 21.9 mph N/A   Clear
3:15 AM 60.1 °F 38.8 °F 45% 29.87 in 10.0 mi SSW 16.1 mph 25.3 mph N/A   Clear
3:35 AM 59.5 °F 39.2 °F 47% 29.86 in 10.0 mi SSW 16.1 mph 24.2 mph N/A   Clear
3:55 AM 59.9 °F 39.2 °F 46% 29.86 in 10.0 mi SW 17.3 mph 21.9 mph N/A   Clear
4:15 AM 59.0 °F 38.7 °F 47% 29.86 in 10.0 mi SSW 12.7 mph - N/A   Clear
4:35 AM 59.0 °F 39.2 °F 48% 29.85 in 10.0 mi SSW 13.8 mph 20.7 mph N/A   Clear
4:55 AM 59.0 °F 39.4 °F 48% 29.86 in 10.0 mi SSW 13.8 mph 20.7 mph N/A   Clear
5:15 AM 57.9 °F 39.6 °F 50% 29.86 in 10.0 mi SSW 13.8 mph 19.6 mph N/A   Clear
5:35 AM 57.7 °F 39.9 °F 51% 29.87 in 10.0 mi SSW 12.7 mph - N/A   Clear
5:55 AM 57.7 °F 40.5 °F 53% 29.87 in 10.0 mi SSW 11.5 mph - N/A   Scattered Clouds
6:15 AM 57.7 °F 42.1 °F 56% 29.87 in 10.0 mi SSW 10.4 mph - N/A   Clear
6:35 AM 57.7 °F 42.6 °F 57% 29.88 in 10.0 mi SW 10.4 mph - N/A   Clear
6:55 AM 55.4 °F 42.1 °F 61% 29.89 in 10.0 mi SW 9.2 mph - N/A   Scattered Clouds
7:15 AM 55.4 °F 42.1 °F 61% 29.90 in 10.0 mi SW 10.4 mph - N/A   Scattered Clouds
7:35 AM 55.6 °F 42.1 °F 60% 29.90 in 10.0 mi SW 11.5 mph 17.3 mph N/A   Scattered Clouds
7:55 AM 57.7 °F 43.7 °F 60% 29.91 in 10.0 mi SW 10.4 mph - N/A   Scattered Clouds
8:15 AM 57.7 °F 43.0 °F 58% 29.91 in 10.0 mi SW 10.4 mph - N/A   Scattered Clouds
8:35 AM 57.7 °F 42.8 °F 57% 29.92 in 10.0 mi SW 11.5 mph 16.1 mph N/A   Mostly Cloudy
8:55 AM 58.1 °F 43.2 °F 58% 29.92 in 10.0 mi SW 10.4 mph - N/A   Overcast
9:15 AM 59.5 °F 43.7 °F 56% 29.92 in 10.0 mi SW 11.5 mph - N/A   Mostly Cloudy
9:35 AM 60.1 °F 44.1 °F 55% 29.93 in 10.0 mi SW 11.5 mph - N/A   Mostly Cloudy
9:55 AM 61.3 °F 44.2 °F 53% 29.93 in 10.0 mi SW 15.0 mph 18.4 mph N/A   Mostly Cloudy
10:15 AM 62.4 °F 45.0 °F 53% 29.93 in 10.0 mi SW 15.0 mph 19.6 mph N/A   Scattered Clouds
10:35 AM 65.5 °F 46.6 °F 50% 29.93 in 10.0 mi WSW 15.0 mph 21.9 mph N/A   Clear
10:55 AM 67.6 °F 48.4 °F 50% 29.93 in 10.0 mi WSW 17.3 mph 25.3 mph N/A   Clear
11:15 AM 67.6 °F 48.0 °F 49% 29.94 in 10.0 mi WSW 12.7 mph 23.0 mph N/A   Clear
11:35 AM 67.6 °F 47.7 °F 49% 29.94 in 10.0 mi WSW 12.7 mph 19.6 mph N/A   Clear
11:55 AM 67.6 °F 48.0 °F 49% 29.95 in 10.0 mi WSW 15.0 mph 19.6 mph N/A   Mostly Cloudy
12:15 PM 68.5 °F 48.2 °F 48% 29.95 in 10.0 mi WSW 16.1 mph 23.0 mph N/A   Scattered Clouds
12:35 PM 69.6 °F 48.9 °F 48% 29.95 in 10.0 mi West 16.1 mph 21.9 mph N/A   Mostly Cloudy
12:55 PM 72.5 °F 50.4 °F 46% 29.94 in 10.0 mi West 13.8 mph 24.2 mph N/A   Mostly Cloudy
1:15 PM 72.5 °F 49.5 °F 44% 29.94 in 10.0 mi West 16.1 mph 25.3 mph N/A   Overcast
1:35 PM 72.7 °F 50.2 °F 45% 29.94 in 10.0 mi West 13.8 mph 20.7 mph N/A   Mostly Cloudy
1:55 PM 72.7 °F 49.1 °F 43% 29.94 in 10.0 mi West 12.7 mph 23.0 mph N/A   Mostly Cloudy
2:15 PM 72.7 °F 47.8 °F 41% 29.94 in 10.0 mi WSW 13.8 mph 23.0 mph N/A   Scattered Clouds
2:35 PM 72.7 °F 48.0 °F 42% 29.94 in 10.0 mi WSW 16.1 mph 23.0 mph N/A   Scattered Clouds
2:55 PM 72.9 °F 46.9 °F 40% 29.94 in 10.0 mi SW 18.4 mph 23.0 mph N/A   Scattered Clouds
3:15 PM 72.7 °F 46.6 °F 39% 29.94 in 10.0 mi West 16.1 mph 25.3 mph N/A   Scattered Clouds
3:35 PM 72.7 °F 47.8 °F 41% 29.94 in 10.0 mi WSW 15.0 mph 21.9 mph N/A   Mostly Cloudy
3:55 PM 72.7 °F 47.8 °F 41% 29.95 in 10.0 mi WSW 13.8 mph 18.4 mph N/A   Mostly Cloudy
4:15 PM 72.7 °F 47.3 °F 40% 29.94 in 10.0 mi WSW 13.8 mph - N/A   Mostly Cloudy
4:35 PM 72.7 °F 46.8 °F 40% 29.94 in 10.0 mi West 10.4 mph - N/A   Scattered Clouds
4:55 PM 72.7 °F 47.3 °F 40% 29.94 in 10.0 mi WSW 11.5 mph 18.4 mph N/A   Scattered Clouds
5:15 PM 72.7 °F 48.2 °F 42% 29.95 in 10.0 mi West 6.9 mph - N/A   Mostly Cloudy
5:35 PM 72.7 °F 48.6 °F 42% 29.95 in 10.0 mi West 8.1 mph - N/A   Mostly Cloudy
5:55 PM 72.7 °F 49.1 °F 43% 29.95 in 10.0 mi West 11.5 mph - N/A   Overcast
6:15 PM 72.7 °F 49.5 °F 44% 29.96 in 10.0 mi West 9.2 mph - N/A   Mostly Cloudy
6:35 PM 72.3 °F 50.4 °F 46% 29.96 in 10.0 mi WSW 6.9 mph - N/A   Scattered Clouds
6:55 PM 69.8 °F 49.3 °F 48% 29.96 in 10.0 mi WSW 5.8 mph - N/A   Scattered Clouds
7:15 PM 67.6 °F 48.7 °F 51% 29.96 in 10.0 mi WSW 4.6 mph - N/A   Scattered Clouds
7:35 PM 67.6 °F 48.7 °F 51% 29.96 in 10.0 mi Calm Calm - N/A   Overcast
7:55 PM 67.6 °F 51.4 °F 56% 29.96 in 10.0 mi Calm Calm - N/A   Overcast
8:15 PM 67.6 °F 51.6 °F 56% 29.96 in 10.0 mi Calm Calm - N/A   Overcast
8:35 PM 63.7 °F 51.3 °F 64% 29.97 in 10.0 mi South 3.5 mph - N/A   Overcast
8:55 PM 67.6 °F 52.2 °F 58% 29.97 in 10.0 mi South 9.2 mph - N/A   Mostly Cloudy
9:15 PM 64.2 °F 52.3 °F 65% 29.98 in 10.0 mi SW 8.1 mph - N/A   Scattered Clouds
9:35 PM 62.6 °F 53.2 °F 71% 29.98 in 10.0 mi SSW 5.8 mph - N/A   Clear
9:55 PM 60.4 °F 53.1 °F 77% 29.99 in 10.0 mi SSW 3.5 mph - N/A   Clear
10:15 PM 59.2 °F 52.9 °F 80% 30.00 in 10.0 mi Calm Calm - N/A   Scattered Clouds
10:35 PM 59.4 °F 53.1 °F 80% 30.00 in 10.0 mi SW 3.5 mph - N/A   Mostly Cloudy
10:55 PM 59.4 °F 53.4 °F 81% 30.00 in 10.0 mi South 6.9 mph - N/A   Mostly Cloudy
11:15 PM 61.5 °F 53.8 °F 76% 29.98 in 10.0 mi South 12.7 mph - N/A   Mostly Cloudy
11:35 PM 60.8 °F 54.0 °F 78% 30.00 in 10.0 mi NNW 8.1 mph - N/A   Light Drizzle
11:55 PM 60.1 °F 54.3 °F 81% 30.01 in 10.0 mi WSW 15.0 mph 18.4 mph N/A   Overcast